Regional Weather Roundup
Issued by NWS

Home | Current Version | Previous Version | Text Only | Print | Product List | Glossary On
Versions: 1 2 3 4 5 6 7 8 9 10 11 12 13 14 15 16 17 18 19 20 21 22 23 24 25 26 27 28 29 30 31 32 33 34 35 36 37 38 39 40 41 42 43 44 45 46 47 48 49 50
000
ASUS43 KDMX 281207
RWRIA

WEATHER ROUNDUP FOR IOWA
NATIONAL WEATHER SERVICE DES MOINES IA
700 AM CDT TUE JUL 28 2015

NOTE: "FAIR" INDICATES FEW OR NO CLOUDS BELOW 12,000 FEET WITH NO
SIGNIFICANT WEATHER AND/OR OBSTRUCTIONS TO VISIBILITY.

* - THESE STATIONS ARE NOT NWS STATIONS...THUS NOT UNDER NWS
QUALITY CONTROL.  THEY ALSO DO NOT REPORT WEATHER SUCH
AS PRECIPITATION OR FOG.

IAZ001>003-012>014-020>022-031>034-043>046-281300-
   NORTHWEST IOWA

CITY           SKY/WX    TMP DP  RH WIND       PRES   REMARKS
CARROLL *      CLOUDY    72  70  94 NW32G46   29.90R
CHEROKEE *     TSTM      67  67 100 E9G17     29.82F
DENISON *      HVY RAIN  70  68  94 N13G20    29.89R
LE MARS *      CLOUDY    68  68 100 SE9G15    29.83R
ORANGE CITY *  CLOUDY    66  66 100 SE6       29.80R
SHELDON *      CLOUDY    68  68 100 VRB6G12   29.78R
SIOUX CITY     CLOUDY    69  66  90 SE22G31   29.81R
6HR MIN TEMP:  69; 6HR MAX TEMP:  76; 6HR PCP:  1.47;

SPENCER        LGT RAIN  70  66  87 NE24G30   29.77F
6HR MIN TEMP:  70; 6HR MAX TEMP:  73; 6HR PCP:  0.26;

STORM LAKE *   LGT RAIN  68  66  94 N7G17     29.89F
$$

IAZ055>058-069>071-079>083-090>094-281300-
   SOUTHWEST IOWA

CITY           SKY/WX    TMP DP  RH WIND       PRES   REMARKS
ATLANTIC *     MOCLDY    75  72  88 S8        29.84R
AUDUBON *      PTCLDY    73  70  88 CALM      29.85R
CLARINDA *     CLEAR     77  73  88 S7        29.84R
COUNCIL BLFS * CLEAR     75  73  94 SE5       29.83R
CRESTON *      CLEAR     72  70  94 S8        29.86S
HARLAN  *      PTCLDY    73  73 100 CALM      29.87R
LAMONI         CLEAR     73  70  90 S7        29.88R
6HR MIN TEMP:  72; 6HR MAX TEMP:  74;

RED OAK *      CLEAR     77  73  88 S7G13     29.83R
SHENANDOAH *   CLEAR     77  73  88 SE9G17    29.82R
$$

IAZ047>049-059>061-072>074-084-281300-
   CENTRAL IOWA

CITY           SKY/WX    TMP DP  RH WIND       PRES   REMARKS
AMES           CLEAR     72  70  93 SE9       29.87R FOG
6HR MIN TEMP:  70; 6HR MAX TEMP:  72;

ANKENY *       CLEAR     73  72  94 SE6       29.87R
CHARITON *     CLEAR     73  72  94 SE8       29.89R
DES MOINES     PTCLDY    75  69  81 SE9       29.86R
6HR MIN TEMP:  73; 6HR MAX TEMP:  75;

GRINNELL*      PTCLDY    73  70  88 SE10      29.91S
KNOXVILLE *    CLEAR     72  70  94 SE8       29.88R
MARSHALLTOWN   PTCLDY    74  72  93 SE9       29.89R FOG
6HR MIN TEMP:  71; 6HR MAX TEMP:  74;

PELLA *        CLEAR     73  73 100 SE7       29.90R
PERRY *          N/A     73  72  94 S5        29.85R
$$

IAZ004>006-015-016-023>025-035-036-281300-
   NORTH CENTRAL IOWA

CITY           SKY/WX    TMP DP  RH WIND       PRES   REMARKS
ALGONA *       RAIN      72  70  94 W5        29.91R
CLARION *      PTCLDY    73  70  88 SE12      29.87S
ESTHERVILLE    RAIN      69  67  93 NE8       29.90R
6HR MIN TEMP:  69; 6HR MAX TEMP:  71; 6HR PCP:  0.44;

FORT DODGE *   CLOUDY    73  68  83 W17G25    29.89R THUNDER
MASON CITY     CLOUDY    72  71  97 SE10      29.91S
6HR MIN TEMP:  71; 6HR MAX TEMP:  72; 6HR PCP: TRACE;

FOREST CITY *  CLOUDY    70  70 100 SE6       29.89R FOG
IOWA FALLS *   CLOUDY    73  71  94 SE10      29.90S FOG
$$

IAZ007>011-017>019-026>030-037>042-050>054-066-281300-
   NORTHEAST IOWA

CITY           SKY/WX    TMP DP  RH WIND       PRES   REMARKS
CEDAR RAPIDS   TSTM      72  72 100 E10       29.92F
6HR MIN TEMP:  70; 6HR MAX TEMP:  74; 6HR PCP:  1.20;

CHARLES CITY * RAIN      72  72 100 VRB6G16   29.89F VSB 3/4
CLINTON *      SUNNY     70  64  83 E9        29.98F
DECORAH *      MOSUNNY   70  70 100 SE9G16    29.91F FOG
DUBUQUE        SUNNY     70  65  84 SE9       29.97S
6HR MIN TEMP:  69; 6HR MAX TEMP:  73;

MONTICELLO *   SUNNY     73  70  88 VRB5      29.96R
OELWEIN *        N/A     72  72 100 SE12      29.92F FOG
WATERLOO       CLOUDY    73  71  93 SE8       29.90R THUNDER
6HR MIN TEMP:  72; 6HR MAX TEMP:  74; 6HR PCP:  0.92;

$$

IAZ064-065-067-068-078-281300-
   EAST CENTRAL IOWA

CITY           SKY/WX    TMP DP  RH WIND       PRES   REMARKS
DAVENPORT      SUNNY     73  69  87 SE7       29.96S
6HR MIN TEMP:  70; 6HR MAX TEMP:  74;

IOWA CITY      TSTM      73  72  96 E8        29.95R FOG
6HR MIN TEMP:  71; 6HR MAX TEMP:  75; 6HR PCP:  0.26;

MT. PLEASANT * SUNNY     75  72  88 SE6       29.93S FOG
MUSCATINE *    MOSUNNY   73  72  94 CALM      29.93S
QUAD CITIES    SUNNY     72  69  90 E7        29.95R
6HR MIN TEMP:  70; 6HR MAX TEMP:  73;

$$

IAZ062-063-075>077-085>089-095>099-281300-
   SOUTHEAST IOWA

CITY           SKY/WX    TMP DP  RH WIND       PRES   REMARKS
BURLINGTON     MOSUNNY   74  74 100 SE6       29.93S
6HR MIN TEMP:  73; 6HR MAX TEMP:  75;

FAIRFIELD *    PTCLDY    73  72  94 S8        29.92R
FORT MADISON * SUNNY     72  72 100 SE5       29.94S
KEOKUK *       CLEAR     73  72  94 SE5       29.92S
OSKALOOSA *      N/A     71  70  96 S5        29.91R
CENTERVILLE *  CLEAR     72  72 100 SE5       29.92R
OTTUMWA        CLEAR     72  71  97 S7        29.90R
6HR MIN TEMP:  72; 6HR MAX TEMP:  73;

WASHINGTON *   CLOUDY    73  73 100 SE7       29.94R FOG
$$

ABBREVIATIONS USED IN REMARKS
   TC - TEMPERATURES IN CELSIUS
  WCI - WIND CHILL INDEX
   HX - HEAT INDEX
  VSB - VISIBILITY
$$



USA.gov is the U.S. government's official web portal to all federal, state and local government web resources and services.